Regional Weather Roundup
Issued by NWS State College, PA

Home | Current Version | Previous Version | Text Only | Print | Product List | Glossary On
Versions: 1 2 3 4 5 6 7 8 9 10 11 12 13 14 15 16 17 18 19 20 21 22 23 24 25 26 27 28 29 30 31 32 33 34 35 36 37 38 39 40 41 42 43 44 45 46 47 48 49 50
000
ASUS41 KCTP 242003
RWRCTP

REGIONAL WEATHER ROUNDUP
NATIONAL WEATHER SERVICE STATE COLLEGE PA
400 PM EDT SAT JUN 24 2017

Note: "fair" indicates few or no clouds below 12,000 feet with no
significant weather and/or obstructions to visibility.

* = STATION THAT DOES NOT REPORT PRECIPITATION /E.G. RAIN...SNOW...ETC/
    THUNDER OR FOG.

PAZ002>004-007>009-013>016-020>023-029>032-242100-
WESTERN PENNSYLVANIA

CITY           SKY/WX    TMP DP  RH WIND       PRES   REMARKS
ERIE           SUNNY     73  59  61 W16G26    29.89S
MEADVILLE      MOSUNNY   73  52  47 W13G26    29.92R
FRANKLIN*      PTSUNNY   72  54  53 W10       29.92R
NEW CASTLE     FAIR      78  56  46 W14G24    29.92R
BEAVER COUNTY  CLOUDY    75  55  50 W7G21     29.93R
BUTLER*        MOSUNNY   75  55  50 W14G22    29.91R
PITTSBURGH INT MOSUNNY   77  57  50 W13G24    29.91R
PITTSBURGH     MOSUNNY   79  55  43 W15G28    29.91R
INDIANA*       PTSUNNY   75  59  57 W14G20    29.93S
LATROBE        MOSUNNY   77  59  53 SW14G23   29.92S
WASHINGTON CO* MOSUNNY   79  57  47 W13G21    29.95S
$$

PAZ004>006-010>012-017>019-024>028-033>037-041-042-045-046-049>053-242100-
CENTRAL PENNSYLVANIA

CITY           SKY/WX    TMP DP  RH WIND       PRES   REMARKS
BRADFORD       CLOUDY    73  57  57 W15       29.89R
DUBOIS         MOSUNNY   76  56  49 SW16G23   29.89S
CLEARFIELD     SUNNY     78  55  44 SW13G23   29.89S
JOHNSTOWN      PTSUNNY   74  56  53 W10G21    29.94F
ALTOONA        SUNNY     78  56  46 W16       29.92S
STATE COLLEGE  MOSUNNY   79  57  47 W9G18     29.89R
WILLIAMSPORT   MOSUNNY   83  55  38 W16       29.80S
SELINSGROVE    MOSUNNY   83  59  44 W7        29.84R
FT INDIANTOWN  NOT AVBL
CAPITAL CITY   MOSUNNY   84  55  36 NW9       29.85R
HARRISBURG     PTSUNNY   81  59  47 NW12      29.85R
YORK           PTSUNNY   81  58  45 W7G16     29.87R
$$

PAZ038>040-043-044-047-048-054-055-060>062-067>071-242100-
EASTERN PENNSYLVANIA

CITY           SKY/WX    TMP DP  RH WIND       PRES   REMARKS
SCRANTON       MOSUNNY   83  55  38 SW9       29.81S
MOUNT POCONO   MOSUNNY   74  53  48 W12G22    29.87R
ALLENTOWN      CLOUDY    84  58  40 W13       29.82R
QUAKERTOWN*    CLOUDY    81  57  44 W5        29.85R
READING        CLOUDY    84  61  45 W16G22    29.82S
LANCASTER      MOSUNNY   85  61  44 NW16G22   29.85R
COATESVILLE    PTCLDY    82  59  44 NW10      29.88R
POTTSTOWN      CLOUDY    81  60  48 W8        29.85R
BLUE BELL      MOSUNNY   81  61  50 W10G16    29.85R
DOYLESTOWN     PTSUNNY   83  59  44 W13G20    29.82R
WILLOW GROVE   NOT AVBL
NORTH PHILA    MOSUNNY   86  59  39 W16G24    29.83R
PHILADELPHIA   PTSUNNY   87  57  35 W15G26    29.83R
$$




USA.gov is the U.S. government's official web portal to all federal, state and local government web resources and services.